Location: Barrio de Buenos Aires
(28.4500°N, 16.2667°W)
Time: 03:26:48
(UTC+00:00)

NOAA 11 - Pass Details

Date: 24 January 2020
Orbit: 832 x 850 km, 98.4° (Epoch: 18 February)

Event Time Altitude Azimuth Distance (km) Brightness Sun altitude
Rises 19:29:00 0° 153° (SSE) 3,400 7.2 -11.5°
Reaches altitude 10° 19:31:25 10° 148° (SSE) 2,467 6.5 -12.0°
Maximum altitude 19:36:42 51° 74° (ENE) 1,063 4.3 -13.1°
Drops below altitude 10° 19:41:59 10° 360° (N) 2,472 6.5 -14.3°
Sets 19:44:25 0° 355° (N) 3,408 7.3 -14.8°
